| time (UTC) | temp C | wind direction | speed KPH | gust KPH | rain 1hr cm | rain 24hr cm | rain mn cm | humidity % | barometer mb |
| 20260503050031 | 7 | 91 | 0.0 | 0.0 | 0.00 | 0.36 | 0.00 | 96 | 1015.8 |
| 20260503044536 | 7 | 91 | 0.0 | 0.0 | 0.00 | 0.36 | 0.00 | 96 | 1015.9 |
| 20260503043028 | 8 | 91 | 0.0 | 0.0 | 0.00 | 0.36 | 0.00 | 96 | 1015.9 |
| 20260503041527 | 8 | 91 | 0.0 | 0.0 | 0.00 | 0.36 | 0.00 | 96 | 1015.8 |
| 20260503040028 | 8 | 91 | 0.0 | 0.0 | 0.00 | 0.36 | 0.00 | 95 | 1015.7 |
| 20260503034523 | 8 | 91 | 0.0 | 0.0 | 0.00 | 0.36 | 0.36 | 95 | 1015.5 |
| 20260503033021 | 8 | 91 | 0.0 | 0.0 | 0.00 | 0.36 | 0.36 | 95 | 1015.5 |
| 20260503031519 | 8 | 91 | 0.0 | 0.0 | 0.00 | 0.36 | 0.36 | 95 | 1015.4 |
| 20260503030017 | 8 | 91 | 0.0 | 0.0 | 0.00 | 0.36 | 0.36 | 95 | 1015.1 |
| 20260503024517 | 8 | 91 | 0.0 | 0.0 | 0.00 | 0.36 | 0.36 | 94 | 1015.3 |
| 20260503023015 | 8 | 91 | 0.0 | 0.0 | 0.00 | 0.36 | 0.36 | 94 | 1015.0 |
| 20260503021513 | 9 | 91 | 0.0 | 0.0 | 0.00 | 0.36 | 0.36 | 94 | 1014.9 |
| 20260503020013 | 9 | 91 | 0.0 | 0.0 | 0.00 | 0.36 | 0.36 | 94 | 1014.8 |
| 20260503014511 | 9 | 91 | 0.0 | 0.0 | 0.00 | 0.36 | 0.36 | 93 | 1015.1 |
| 20260503013010 | 9 | 91 | 0.0 | 0.0 | 0.00 | 0.36 | 0.36 | 93 | 1014.9 |
| 20260503011509 | 10 | 91 | 0.0 | 0.0 | 0.00 | 0.36 | 0.36 | 92 | 1014.7 |
| 20260503010011 | 10 | 91 | 0.0 | 0.0 | 0.00 | 0.36 | 0.36 | 91 | 1014.3 |
| 20260503004505 | 10 | 91 | 0.0 | 0.0 | 0.00 | 0.36 | 0.36 | 90 | 1014.0 |
| 20260503003004 | 10 | 91 | 0.0 | 0.0 | 0.00 | 0.36 | 0.36 | 89 | 1013.7 |
| 20260503001503 | 11 | 91 | 0.0 | 0.0 | 0.00 | 0.36 | 0.36 | 89 | 1013.5 |
| 20260503000002 | 11 | 91 | 0.0 | 0.0 | 0.00 | 0.36 | 0.36 | 88 | 1013.4 |
| 20260502234501 | 12 | 91 | 0.0 | 0.0 | 0.00 | 0.36 | 0.36 | 88 | 1013.1 |
| 20260502233002 | 12 | 91 | 0.0 | 0.0 | 0.00 | 0.36 | 0.36 | 87 | 1012.8 |
| 20260502231604 | 12 | 91 | 0.0 | 0.0 | 0.00 | 0.36 | 0.36 | 88 | 1012.9 |
| 20260502230100 | 12 | 91 | 0.0 | 0.0 | 0.00 | 0.36 | 0.36 | 87 | 1012.7 |
| 20260502224612 | 12 | 91 | 0.0 | 0.0 | 0.00 | 0.36 | 0.36 | 87 | 1012.6 |
| 20260502223059 | 12 | 91 | 0.0 | 0.0 | 0.00 | 0.36 | 0.36 | 87 | 1012.7 |
| 20260502221600 | 12 | 91 | 0.0 | 0.0 | 0.00 | 0.36 | 0.36 | 86 | 1012.6 |
| 20260502220058 | 12 | 91 | 0.0 | 0.0 | 0.00 | 0.36 | 0.36 | 86 | 1012.6 |
| 20260502214624 | 12 | 91 | 0.0 | 0.0 | 0.00 | 0.36 | 0.36 | 85 | 1012.5 |
| 20260502213059 | 12 | 88 | 0.0 | 1.6 | 0.00 | 0.36 | 0.36 | 84 | 1012.4 |
| 20260502211604 | 13 | 294 | 0.0 | 0.0 | 0.00 | 0.36 | 0.36 | 84 | 1012.5 |
| 20260502210056 | 13 | 294 | 0.0 | 0.0 | 0.00 | 0.36 | 0.36 | 83 | 1012.3 |
| 20260502204555 | 13 | 294 | 0.0 | 0.0 | 0.00 | 0.38 | 0.36 | 81 | 1012.4 |
| 20260502203106 | 13 | 307 | 0.0 | 0.0 | 0.00 | 0.38 | 0.36 | 80 | 1012.4 |
| 20260502201605 | 13 | 307 | 0.0 | 3.2 | 0.00 | 0.38 | 0.36 | 80 | 1012.4 |
| 20260502200052 | 13 | 249 | 0.0 | 4.8 | 0.00 | 0.38 | 0.36 | 81 | 1012.4 |
| 20260502194557 | 13 | 90 | 0.0 | 4.8 | 0.00 | 0.38 | 0.36 | 82 | 1012.5 |
| 20260502193051 | 13 | 249 | 0.0 | 4.8 | 0.00 | 0.38 | 0.36 | 83 | 1012.8 |
| 20260502191550 | 13 | 303 | 0.0 | 4.8 | 0.00 | 0.38 | 0.36 | 81 | 1013.1 |
| 20260502190049 | 13 | 224 | 0.0 | 4.8 | 0.00 | 0.38 | 0.36 | 83 | 1013.0 |
| 20260502184545 | 13 | 345 | 0.0 | 6.4 | 0.00 | 0.38 | 0.36 | 85 | 1013.2 |
| 20260502183043 | 12 | 128 | 0.0 | 1.6 | 0.00 | 0.38 | 0.36 | 88 | 1013.3 |
| 20260502181539 | 12 | 72 | 0.0 | 3.2 | 0.00 | 0.38 | 0.36 | 91 | 1013.4 |
| 20260502163035 | 11 | 22 | 0.0 | 6.4 | 0.05 | 0.38 | 0.36 | 95 | 1014.3 |
| 20260502161531 | 11 | 43 | 0.0 | 4.8 | 0.05 | 0.38 | 0.36 | 96 | 1014.6 |
| 20260502151530 | 11 | 11 | 0.0 | 6.4 | 0.05 | 0.33 | 0.30 | 95 | 1014.5 |
| 20260502123017 | 10 | 266 | 0.0 | 0.0 | 0.03 | 0.08 | 0.05 | 92 | 1013.7 |
| 20260502121515 | 11 | 266 | 0.0 | 4.8 | 0.03 | 0.08 | 0.05 | 92 | 1013.2 |
| 20260502114520 | 11 | 342 | 0.0 | 1.6 | 0.03 | 0.05 | 0.03 | 92 | 1013.4 |
| 20260502113016 | 11 | 334 | 0.0 | 0.0 | 0.03 | 0.05 | 0.03 | 92 | 1013.4 |
| 20260502111512 | 11 | 325 | 0.0 | 3.2 | 0.03 | 0.05 | 0.03 | 91 | 1013.4 |
| 20260502110015 | 11 | 307 | 0.0 | 3.2 | 0.00 | 0.03 | 0.00 | 91 | 1013.6 |
| 20260502104516 | 11 | 286 | 0.0 | 1.6 | 0.00 | 0.03 | 0.00 | 91 | 1013.6 |
| 20260502103010 | 11 | 305 | 0.0 | 3.2 | 0.00 | 0.03 | 0.00 | 91 | 1013.6 |
| 20260502101509 | 11 | 4 | 0.0 | 3.2 | 0.00 | 0.03 | 0.00 | 92 | 1013.7 |
| 20260502091506 | 11 | 330 | 0.0 | 0.0 | 0.00 | 0.03 | 0.00 | 93 | 1013.7 |
| 20260502070109 | 11 | 72 | 0.0 | 0.0 | 0.00 | 0.03 | 0.00 | 94 | 1012.6 |
| 20260502064620 | 11 | 72 | 0.0 | 0.0 | 0.00 | 0.03 | 0.00 | 94 | 1012.6 |
| 20260502063123 | 11 | 72 | 0.0 | 0.0 | 0.00 | 0.03 | 0.00 | 94 | 1012.8 |
| 20260502061555 | 11 | 72 | 0.0 | 0.0 | 0.00 | 0.03 | 0.00 | 94 | 1013.0 |
| 20260502060054 | 11 | 72 | 0.0 | 0.0 | 0.00 | 0.03 | 0.00 | 94 | 1013.1 |
| 20260502054553 | 11 | 72 | 0.0 | 0.0 | 0.00 | 0.03 | 0.00 | 93 | 1013.1 |
| 20260502053057 | 11 | 72 | 0.0 | 0.0 | 0.00 | 0.03 | 0.00 | 93 | 1013.3 |
| 20260502051550 | 11 | 72 | 0.0 | 0.0 | 0.00 | 0.03 | 0.00 | 93 | 1013.4 |